TimePDT,TemperatureF,Dew PointF,Humidity,Sea Level PressureIn,VisibilityMPH,Wind Direction,Wind SpeedMPH,Gust SpeedMPH,PrecipitationIn,Events,Conditions,WindDirDegrees,DateUTC
12:53 AM,50.0,35.1,57,30.40,10.0,West,16.1,19.6,N/A,,Scattered Clouds,280,2013-04-18 07:53:00
1:53 AM,50.0,35.1,57,30.40,10.0,NW,9.2,-,N/A,,Overcast,320,2013-04-18 08:53:00
2:53 AM,51.1,35.1,54,30.40,10.0,NW,15.0,-,N/A,,Overcast,310,2013-04-18 09:53:00
3:53 AM,50.0,34.0,54,30.40,10.0,WNW,11.5,-,N/A,,Mostly Cloudy,300,2013-04-18 10:53:00
4:53 AM,48.9,34.0,56,30.41,10.0,WNW,15.0,-,N/A,,Scattered Clouds,300,2013-04-18 11:53:00
5:53 AM,48.0,35.1,61,30.40,10.0,NW,10.4,-,N/A,,Overcast,310,2013-04-18 12:53:00
6:53 AM,48.9,35.1,59,30.41,10.0,WNW,13.8,-,N/A,,Partly Cloudy,300,2013-04-18 13:53:00
7:53 AM,50.0,35.1,57,30.42,10.0,WNW,15.0,-,N/A,,Mostly Cloudy,300,2013-04-18 14:53:00
8:53 AM,52.0,36.0,54,30.42,10.0,WNW,13.8,19.6,N/A,,Overcast,300,2013-04-18 15:53:00
9:53 AM,52.0,36.0,54,30.42,10.0,NW,15.0,-,N/A,,Overcast,320,2013-04-18 16:53:00
10:53 AM,54.0,37.0,53,30.42,10.0,NW,16.1,-,N/A,,Mostly Cloudy,310,2013-04-18 17:53:00
11:53 AM,57.0,37.9,49,30.41,10.0,WNW,15.0,-,N/A,,Partly Cloudy,290,2013-04-18 18:53:00
12:53 PM,61.0,39.0,44,30.38,10.0,NW,19.6,25.3,N/A,,Clear,320,2013-04-18 19:53:00
1:53 PM,60.1,39.0,46,30.36,10.0,WNW,19.6,26.5,N/A,,Mostly Cloudy,300,2013-04-18 20:53:00
2:53 PM,60.1,37.9,44,30.35,10.0,WNW,19.6,26.5,N/A,,Clear,300,2013-04-18 21:53:00
3:53 PM,59.0,39.0,48,30.34,10.0,WNW,20.7,31.1,N/A,,Clear,300,2013-04-18 22:53:00
4:53 PM,57.0,39.0,51,30.32,10.0,NW,17.3,26.5,N/A,,Mostly Cloudy,310,2013-04-18 23:53:00
5:53 PM,57.0,39.0,51,30.30,10.0,NW,24.2,29.9,N/A,,Overcast,320,2013-04-19 00:53:00
6:53 PM,57.0,39.9,53,30.30,10.0,NW,25.3,32.2,N/A,,Overcast,310,2013-04-19 01:53:00
7:53 PM,55.9,39.9,55,30.30,10.0,NNW,13.8,-,N/A,,Partly Cloudy,330,2013-04-19 02:53:00
8:53 PM,55.9,41.0,57,30.30,10.0,NW,13.8,-,N/A,,Scattered Clouds,310,2013-04-19 03:53:00
9:53 PM,55.0,43.0,64,30.29,10.0,NW,20.7,27.6,N/A,,Mostly Cloudy,320,2013-04-19 04:53:00
10:53 PM,54.0,44.1,69,30.29,10.0,NW,12.7,-,N/A,,Overcast,320,2013-04-19 05:53:00
11:53 PM,52.0,45.0,77,30.27,10.0,NW,10.4,-,N/A,,Mostly Cloudy,320,2013-04-19 06:53:00